Lapse_Rate
7.3 7.1 6.6 6.4 6.5 6.2 6.4 6.6 6.6 6.7 6.9 7.0 7.0 6.9 7.0 7.3 7.4 7.5 7.5 7.5 7.7 7.6 7.6 7.5 7.3 7.1 6.9 6.4 5.8 6.0 5.8 5.8 5.8 5.8 5.4 5.2 5.3 5.3 5.3 5.4 5.4 5.4 5.3 5.3
7.5 7.5 7.4 7.1 7.0 6.6 7.0 6.9 6.9 7.2 7.1 7.1 7.1 7.1 7.2 7.5 7.7 7.6 7.4 7.2 7.4 7.3 7.3 7.0 7.0 7.1 7.0 6.6 6.0 6.0 5.8 5.8 5.7 5.5 5.2 5.3 5.4 5.5 5.5 5.6 5.4 5.3 5.4 5.6
7.9 7.9 7.8 7.6 7.3 6.9 7.2 7.4 7.6 7.4 7.3 7.3 7.2 7.2 7.1 7.2 7.4 7.5 7.6 7.4 7.3 7.4 7.2 7.0 6.8 7.0 7.0 6.7 6.1 6.0 5.9 5.8 5.7 5.5 5.4 5.6 5.6 5.6 5.6 5.7 5.8 5.8 5.9 5.8
8.1 8.0 7.9 7.8 7.4 7.4 7.2 7.4 7.4 7.6 7.4 7.3 7.1 6.5 7.2 7.2 7.2 7.4 7.5 7.4 7.3 7.2 7.2 7.1 7.0 6.9 6.8 6.3 6.2 5.9 5.8 5.7 5.6 5.6 5.6 5.7 5.7 5.7 5.8 5.8 5.9 5.8 5.7 5.6
8.1 8.0 7.8 7.6 7.6 7.5 7.3 7.5 7.4 7.4 7.5 7.4 7.0 6.6 6.9 7.2 7.3 7.5 7.5 7.3 7.4 7.3 7.1 7.1 7.0 6.9 7.0 6.4 5.9 5.7 5.7 5.7 5.7 5.8 5.9 5.8 5.7 5.7 5.8 5.9 5.9 5.8 5.6 5.5
8.1 8.0 7.8 7.7 7.7 7.3 7.4 7.4 7.5 7.4 7.2 6.0 6.9 6.7 6.8 7.3 7.7 7.7 7.7 7.6 7.4 7.2 7.2 7.2 7.0 7.1 7.2 6.6 6.0 5.8 5.9 5.9 5.9 5.9 5.9 5.8 5.8 5.9 5.9 5.7 5.6 5.6 5.6 5.6
8.0 7.9 7.7 7.7 7.6 7.5 7.4 7.6 6.5 6.6 6.0 5.4 7.1 6.6 6.7 7.5 7.6 7.8 7.8 7.8 7.6 7.5 7.5 7.3 7.3 7.3 7.2 6.9 6.2 6.1 6.1 6.1 6.1 5.9 6.0 6.0 6.0 5.9 5.9 5.9 5.8 5.7 5.5 5.4
7.2 7.5 7.3 7.4 7.4 7.5 7.5 7.4 7.1 6.3 5.3 5.9 7.0 6.2 7.1 7.7 7.8 7.8 7.7 7.8 7.7 7.6 7.6 7.6 7.6 7.5 7.3 6.9 6.4 6.3 6.2 6.1 6.0 6.0 6.1 6.1 6.0 5.9 5.8 5.6 5.4 5.2 5.1 5.1
6.1 6.8 7.2 7.0 7.1 7.1 7.2 7.3 7.3 7.1 6.5 6.3 6.9 7.1 7.7 8.1 8.1 8.0 7.9 7.9 7.9 7.8 7.8 7.8 7.7 7.6 7.3 6.8 6.5 6.3 6.1 6.1 6.1 6.2 6.1 5.9 5.7 5.5 5.3 5.2 5.2 5.1 5.1 5.2
6.5 5.7 6.9 7.1 7.2 7.1 7.2 7.7 7.2 6.8 6.4 6.5 6.2 7.1 8.1 8.3 8.2 8.3 7.9 8.0 8.0 7.8 7.7 7.8 7.7 7.5 7.2 6.9 6.6 6.4 6.3 6.2 6.0 5.8 5.6 5.5 5.3 5.2 5.1 5.1 5.2 5.2 5.3 5.4
7.1 6.5 6.8 6.8 7.0 7.2 7.3 7.3 7.2 6.7 6.7 6.2 6.4 7.7 8.2 8.2 8.3 8.1 7.9 7.8 7.7 7.7 7.8 7.7 7.5 7.2 7.0 6.8 6.5 6.3 6.0 5.8 5.7 5.5 5.3 5.3 5.2 5.2 5.2 5.2 5.3 5.4 5.6 5.8
6.9 7.1 7.2 6.7 6.8 7.2 7.2 7.3 7.2 6.7 6.6 6.8 7.0 8.0 8.2 8.4 8.4 8.2 7.6 7.5 7.6 7.7 7.6 7.4 7.2 7.0 6.6 6.3 6.1 5.8 5.7 5.5 5.4 5.3 5.2 5.2 5.2 5.3 5.3 5.4 5.6 5.7 5.8 5.8
7.1 7.3 7.5 7.0 7.0 6.5 7.1 7.2 7.5 7.5 7.6 7.4 6.7 7.8 8.2 8.3 8.2 8.2 7.8 7.5 7.5 7.4 7.3 7.1 6.9 6.5 6.3 5.9 5.7 5.5 5.4 5.4 5.3 5.3 5.4 5.4 5.3 5.4 5.5 5.6 5.7 5.7 5.7 5.8
7.3 7.2 7.3 7.4 7.7 7.5 7.2 7.3 7.4 7.4 7.4 7.6 7.6 8.0 8.1 7.8 7.8 7.9 7.9 7.6 7.4 7.2 7.1 6.8 6.5 6.2 5.9 5.8 5.7 5.6 5.5 5.4 5.5 5.4 5.3 5.4 5.5 5.5 5.5 5.6 5.6 5.8 6.0 5.9
7.2 7.3 7.5 7.6 7.5 7.7 7.8 7.6 7.5 7.3 7.4 7.5 7.7 7.7 7.6 7.7 7.6 7.6 7.4 7.3 7.3 7.1 6.7 6.4 6.0 5.9 5.8 5.6 5.5 5.5 5.4 5.3 5.2 5.2 5.2 5.3 5.3 5.4 5.4 5.7 6.0 6.0 5.8 5.9
7.0 7.2 7.5 7.7 7.7 7.5 7.6 7.6 7.5 7.5 7.5 7.3 7.2 7.6 7.6 7.5 7.5 7.5 7.4 7.1 6.8 6.5 6.1 5.9 5.8 5.7 5.5 5.4 5.3 5.3 5.2 5.0 5.0 5.1 5.1 5.0 5.1 5.4 5.7 5.7 5.7 5.9 6.3 6.5
6.8 6.9 7.2 7.5 7.5 7.4 7.7 7.8 7.7 7.5 7.5 7.5 7.6 7.7 7.5 7.4 7.3 7.1 6.9 6.8 6.4 5.9 5.7 5.6 5.5 5.4 5.4 5.4 5.2 4.9 4.8 4.8 4.8 4.8 4.9 5.1 5.5 5.6 5.7 6.1 6.4 6.6 6.7 6.9
6.8 6.8 7.0 7.2 7.4 6.6 7.7 7.8 7.8 7.7 7.7 7.6 7.5 7.2 7.2 7.1 7.0 6.8 6.5 6.2 6.0 5.7 5.7 5.6 5.5 5.5 5.2 5.0 4.8 4.7 4.6 4.6 4.8 5.0 5.3 5.5 5.6 6.1 6.4 6.7 6.9 7.0 7.2 7.3
7.0 6.9 7.0 7.1 7.1 7.7 7.9 7.9 7.6 7.4 7.6 7.4 7.2 7.1 6.9 7.0 6.9 6.6 6.3 6.1 5.9 5.9 5.9 5.7 5.4 5.1 4.9 4.8 4.7 4.7 4.7 4.8 5.0 5.3 5.7 6.0 6.3 6.5 6.9 7.3 7.3 7.3 7.4 7.4
7.2 7.0 6.9 6.9 6.9 5.7 7.7 7.6 7.5 7.3 7.5 7.6 7.4 6.9 6.9 6.8 6.5 6.3 6.2 6.1 6.0 5.9 5.7 5.4 5.1 4.8 4.7 4.7 4.7 4.8 4.9 5.1 5.6 5.9 6.1 6.1 6.4 7.0 7.5 7.6 7.5 7.5 7.3 7.3
7.5 7.2 7.0 6.9 6.7 7.5 7.5 7.4 7.2 7.2 7.2 7.2 7.2 7.0 6.8 6.6 6.4 6.3 6.1 5.9 5.7 5.6 5.4 5.0 4.8 4.6 4.6 4.8 4.9 4.9 5.0 5.4 5.7 6.1 6.3 6.4 7.0 7.5 7.6 7.6 7.5 7.4 7.3 7.0
7.6 7.6 7.6 7.1 6.9 7.3 7.6 7.5 7.4 7.2 7.1 7.0 7.0 6.9 6.7 6.4 6.2 5.9 5.6 5.5 5.5 5.3 5.0 4.8 4.7 4.7 4.8 4.7 4.7 4.8 5.2 5.8 6.3 6.5 6.6 7.0 7.3 7.5 7.5 7.5 7.4 7.1 6.9 6.8
7.4 7.5 7.5 7.6 7.9 7.7 7.4 7.2 7.1 7.0 6.9 6.9 6.9 6.7 6.4 6.1 5.8 5.6 5.5 5.5 5.3 5.0 4.8 4.7 4.6 4.7 4.6 4.6 4.8 5.3 5.9 6.4 6.5 6.5 6.9 7.1 7.4 7.4 7.4 7.3 7.1 6.8 6.6 6.6
7.2 7.4 7.4 7.4 7.8 7.6 7.4 7.3 7.1 7.1 7.1 7.0 6.8 6.5 6.1 5.8 5.6 5.6 5.5 5.3 5.1 4.8 4.6 4.7 4.5 4.4 4.6 4.7 5.2 5.7 6.2 6.4 6.5 6.9 7.2 7.3 7.3 7.4 7.2 7.0 6.6 6.5 6.5 6.5
6.9 6.9 7.4 7.6 7.7 7.3 7.5 7.5 7.4 7.3 7.2 7.1 6.8 6.3 5.9 5.7 5.6 5.5 5.4 5.0 4.8 4.6 4.6 4.4 4.3 4.4 4.6 5.1 5.4 6.2 6.4 6.5 6.7 7.1 7.2 7.3 7.3 7.2 7.0 6.6 6.4 6.4 6.4 5.7
7.1 7.3 7.4 7.8 7.5 7.2 7.2 7.4 7.6 7.6 7.4 6.9 6.4 6.0 5.8 5.7 5.5 5.4 5.1 4.9 4.7 4.5 4.3 4.2 4.3 4.3 4.8 5.2 6.0 6.4 6.5 6.6 6.9 7.0 7.1 7.1 7.1 6.9 6.5 6.3 6.4 6.2 6.0 5.1
Wind_Speed
4 3 6 7 6 7 2 5 5 3 5 5 7 5 8 7 5 7 8 8 6 6 1 3 6 8 9 8 9 11 11 7 8 4 4 3 3 2 2 6 9 11 11 12
2 7 10 11 11 11 9 5 4 2 3 4 5 9 8 7 6 6 7 6 7 4 4 6 6 6 11 11 9 8 9 10 7 4 3 3 3 2 1 4 7 9 9 10
7 9 11 8 8 10 8 4 5 4 3 3 4 5 4 6 5 4 4 6 5 9 8 7 8 7 7 11 10 9 10 10 7 7 4 4 4 3 1 2 3 7 12 12
5 4 7 4 7 8 8 6 5 6 4 3 1 4 4 3 7 4 3 2 5 4 4 5 7 7 8 7 7 8 8 9 7 8 5 5 5 4 4 4 3 3 8 8
4 3 4 4 4 6 6 1 5 4 4 2 1 1 6 1 6 7 6 5 2 2 1 6 6 6 5 7 7 7 7 7 5 6 4 4 3 2 1 1 1 1 1 3
4 2 3 1 3 2 8 6 7 5 3 1 5 5 5 5 5 0 3 5 0 4 4 4 6 8 6 6 7 7 7 5 5 6 4 5 4 3 2 1 1 1 1 2
4 3 4 2 4 5 4 5 3 2 1 4 1 5 10 2 2 3 8 6 2 3 2 6 8 8 7 7 7 6 7 4 4 5 4 4 4 4 4 2 1 1 1 1
6 2 5 6 1 4 2 6 4 5 4 4 2 5 5 2 3 3 6 4 3 3 3 6 7 7 8 8 7 7 7 6 5 6 5 4 4 3 3 3 3 3 2 2
8 5 5 1 2 3 3 2 3 4 2 2 2 5 3 2 3 4 5 5 3 3 5 7 7 7 8 8 7 8 8 7 6 7 6 5 5 5 5 5 3 3 2 2
6 3 1 2 3 1 4 6 3 3 2 2 3 4 5 4 6 4 4 5 4 4 6 7 6 7 6 7 7 7 7 7 6 6 5 4 5 5 4 4 4 4 3 2
6 2 3 8 1 4 2 1 6 4 3 2 2 5 5 4 8 9 8 7 6 6 7 7 6 7 7 7 7 7 6 7 5 5 4 5 4 4 4 4 3 2 1 1
3 3 3 4 3 1 1 2 5 4 5 2 2 5 0 5 7 9 9 7 5 5 6 6 7 7 7 7 6 6 4 5 4 4 4 4 4 3 3 2 1 1 1 1
2 0 2 3 3 4 3 3 3 4 3 4 5 5 1 1 5 7 9 7 7 6 6 6 6 6 6 6 5 5 5 5 5 5 5 4 3 2 2 1 1 2 2 3
3 1 4 4 3 2 4 4 4 4 3 5 6 5 3 3 6 6 6 7 8 6 7 6 5 5 5 5 5 5 4 4 4 5 4 3 1 1 2 2 2 2 3 4
2 2 2 5 5 3 3 5 5 7 4 5 3 6 6 6 8 8 7 6 7 7 7 6 6 5 4 5 4 4 4 4 3 4 2 0 1 2 3 3 3 4 4 5
2 2 2 3 3 2 4 6 6 4 2 6 1 6 6 2 6 6 7 7 7 7 7 7 7 7 6 4 3 3 3 3 2 2 1 2 3 3 4 4 4 5 6 6
2 2 4 4 5 6 5 3 4 4 4 5 5 8 4 2 1 2 5 7 7 7 7 8 8 7 5 4 4 2 2 1 0 2 4 4 4 5 5 4 5 6 6 5
1 2 1 3 5 2 4 1 1 4 5 5 2 1 2 2 4 4 4 6 8 8 8 8 6 5 5 3 2 2 3 2 1 4 5 5 5 6 5 4 6 5 4 6
1 2 2 2 1 6 2 1 0 1 5 2 4 5 3 4 3 6 5 2 6 7 7 6 6 4 4 4 3 3 3 1 2 5 6 6 5 5 4 5 6 5 4 4
3 3 3 2 2 3 3 1 1 1 4 5 4 6 6 4 3 3 1 4 8 8 7 7 6 4 4 3 2 2 2 3 4 5 6 5 4 4 5 5 6 3 3 5
2 2 4 2 2 7 5 2 1 4 5 3 3 5 7 4 4 4 6 6 6 6 8 7 5 5 3 2 2 2 3 5 5 4 5 4 3 4 5 5 2 4 5 5
5 4 3 2 1 5 5 2 3 5 2 2 2 5 6 5 6 7 7 8 8 8 6 6 5 2 2 0 1 3 4 4 4 4 4 4 4 3 3 4 4 5 5 6
2 5 2 7 5 4 5 4 3 4 4 4 5 6 7 7 6 8 7 7 6 7 5 4 4 1 1 0 2 3 3 4 4 4 4 4 5 5 4 4 5 4 5 5
2 2 2 3 2 6 8 4 4 6 4 4 3 5 7 8 9 7 7 6 6 5 4 3 3 1 2 2 2 3 5 4 3 4 4 4 5 6 5 4 4 4 5 5
3 1 1 6 8 6 7 7 5 6 4 5 5 5 7 9 7 7 6 6 5 5 3 3 2 0 2 3 4 4 3 2 3 3 4 5 4 4 5 5 4 5 5 7
5 6 4 5 3 3 6 4 4 8 6 8 8 6 5 6 9 6 6 5 4 4 2 1 1 1 3 2 4 3 2 1 1 3 4 4 3 3 4 4 6 11 15 18
Wind_Direction
197 164 201 215 195 254 222 148 146 189 169 135 204 216 227 233 249 246 235 233 233 245 24 155 155 148 148 137 149 155 150 145 142 134 126 111 162 175 206 197 190 185 186 184
0 226 210 206 203 237 252 223 175 69 124 128 182 241 236 233 237 221 228 249 248 235 191 173 158 153 163 159 153 153 155 158 152 141 128 135 148 186 186 194 212 209 203 200
187 238 212 194 194 210 233 216 160 149 106 69 122 300 202 228 234 242 214 218 220 209 206 183 175 164 142 154 166 168 157 159 148 136 114 83 80 70 105 216 230 221 214 213
224 242 208 165 203 191 222 181 143 133 110 192 46 263 267 223 242 228 203 196 170 183 180 168 171 164 161 147 134 143 145 154 159 159 149 159 175 171 208 196 206 221 223 230
264 177 193 179 195 161 214 101 128 119 109 120 69 96 266 86 266 235 193 209 184 55 188 187 173 151 127 134 141 138 134 143 154 168 168 171 171 186 71 46 104 174 291 259
257 265 72 268 77 22 148 86 50 53 81 335 210 167 271 202 221 57 171 198 352 349 343 131 137 127 117 114 114 121 132 146 154 168 174 179 186 171 163 198 201 84 52 44
340 20 347 41 67 33 101 86 40 47 32 215 256 167 238 227 312 236 187 188 11 6 140 154 147 138 129 128 127 129 143 149 149 172 171 171 181 180 192 191 184 87 66 72
9 2 15 344 309 166 81 154 152 193 181 212 83 223 253 277 325 45 102 102 54 62 138 150 146 133 128 133 128 126 134 121 120 120 116 116 126 125 111 121 122 129 132 129
10 310 330 232 291 132 167 145 120 105 29 59 240 301 300 105 83 94 100 93 93 94 121 127 119 117 118 116 124 127 119 116 114 113 110 99 105 116 126 127 124 115 97 111
158 295 293 326 324 164 178 169 105 17 98 277 301 280 244 216 204 166 158 157 147 118 115 112 107 108 100 103 108 108 114 119 122 109 103 102 103 98 99 95 99 104 105 75
169 189 8 14 297 204 101 65 63 99 153 180 308 267 215 232 199 187 191 190 165 150 137 123 105 96 97 98 104 109 105 109 107 110 99 91 79 80 86 94 98 98 90 33
209 190 239 170 251 251 151 201 129 144 204 234 152 278 23 273 214 173 186 185 178 162 146 130 122 119 112 113 107 104 108 112 108 102 100 113 119 106 91 114 146 172 249 263
328 323 32 37 343 360 302 243 125 100 83 190 138 262 40 355 151 186 173 180 185 164 139 127 121 126 124 115 109 92 75 85 105 122 123 112 101 107 144 188 256 259 258 277
1 342 167 188 203 162 198 252 166 150 139 170 220 267 277 228 197 191 180 188 182 162 150 138 125 122 111 99 99 96 87 83 85 82 78 86 139 192 250 276 285 297 292 287
77 289 295 255 228 212 254 240 192 199 188 176 255 214 265 250 207 199 191 164 154 152 154 158 146 130 122 117 104 83 74 77 95 127 134 353 294 287 306 298 270 282 291 287
355 254 310 275 360 338 249 233 218 227 206 279 266 276 227 9 118 166 184 167 175 172 165 146 140 143 149 141 118 113 151 160 149 96 321 308 297 288 274 267 291 293 295 294
346 5 22 289 342 321 310 281 202 188 182 167 188 232 183 195 142 152 183 188 182 154 146 145 155 152 132 127 141 159 187 154 239 299 314 300 287 282 271 270 290 293 289 284
281 90 76 261 348 2 247 272 265 234 256 214 243 312 71 102 104 51 350 172 156 146 143 150 140 118 112 114 111 131 162 186 332 296 285 287 282 281 274 276 281 287 275 279
189 119 62 77 253 288 31 33 86 76 298 272 171 123 113 122 124 28 5 99 151 151 130 120 123 122 132 131 152 117 51 347 287 297 296 292 275 267 270 292 299 291 277 285
64 69 113 90 87 240 254 312 337 108 314 344 145 158 155 154 74 263 127 111 97 103 120 126 129 125 135 168 93 68 333 331 299 292 296 301 293 276 291 292 293 279 263 279
353 6 171 159 243 286 246 271 276 69 245 332 165 162 156 155 191 149 123 79 107 121 127 131 121 127 129 86 88 311 291 276 273 294 304 309 301 290 278 288 281 284 297 292
181 153 200 81 95 304 176 110 188 212 210 199 162 162 153 132 124 129 127 130 126 128 125 120 121 108 36 258 187 278 284 278 294 302 311 320 315 306 309 310 303 305 299 296
280 184 193 180 220 254 216 209 180 168 176 194 171 175 144 133 154 150 140 138 139 137 133 142 131 105 354 67 181 291 274 313 316 326 327 324 315 313 329 320 311 306 298 293
263 164 201 28 285 246 251 254 231 198 215 182 145 136 154 149 146 135 134 135 139 145 137 131 127 33 334 346 327 248 298 311 320 323 328 318 323 317 332 312 293 289 297 298
208 84 214 265 285 283 267 237 217 207 164 111 109 146 151 133 135 137 138 147 144 140 129 133 154 235 294 318 323 325 319 330 345 339 321 320 315 312 310 296 287 294 273 288
184 194 176 246 230 205 262 312 197 176 177 166 141 117 105 129 138 130 143 145 139 133 140 127 105 271 287 306 308 307 299 186 67 341 333 316 315 316 303 305 311 315 319 324